[[{"header":{"parameterUnit":"m.s-1","parameterCategory":2,"la1":30.2991,"la2":30.254,"lo1":-89.0895,"lo2":-89.0444,"dy":0.0017,"dx":0.0017,"nx":28,"ny":28,"refTime":"2025-12-20T09:00:00:Z","depth":"0","parameterNumber":2,"parameterNumberName":"U-component_of_CURRENTS"},"data":[0,0,0,0,0,0,0,0,0,0,0,0,0,0,0,0,0,0,0,0,0,0,0,0,0,0,0,0,0,0,0,0,0,0,0,0,0,0,0,0,0,0,0,0,0,0,0,0,0,0,0,0,0,0,0,0,0,0,0.2295,0.2296,0,0.2319,0.2319,0.2319,0.232,0.2319,0.2319,0.2319,0.2319,0.2319,0.2319,0,0,0,0,0,0,0,0,0,0,0,0,0,0.2254,0.2254,0.2295,0.2296,0.2296,0.2319,0.2319,0.2319,0.232,0.2319,0.2319,0.2319,0.2318,0.2319,0.2319,0,0,0,0,0,0,0,0,0,0,0,0,0,0.2273,0.2255,0.2295,0.23,0.2301,0.2319,0.2319,0.2319,0.232,0.2319,0.2319,0.2319,0.2318,0.2319,0.2319,0.2325,0,0,0.2319,0.232,0,0,0,0,0,0,0,0,0.2272,0.2274,0.2299,0.23,0.2301,0.2317,0.2305,0.2321,0.232,0.2311,0.2319,0.2319,0.2317,0.2317,0.2321,0.2325,0.2325,0.2319,0.232,0.232,0.232,0,0,0,0,0,0,0,0.227,0.2273,0.2303,0.2299,0.2301,0.2303,0.2305,0.2308,0.2313,0.2312,0.2312,0.2317,0.2317,0.232,0.232,0.2325,0.2319,0.232,0.232,0.232,0.2371,0.2372,0,0,0,0,0,0,0.2271,0.2272,0.2302,0.2304,0.2287,0.2304,0.2306,0.2311,0.2314,0.2315,0.2318,0.2317,0.232,0.232,0.232,0.2356,0.232,0.232,0.232,0.2369,0.2371,0.2372,0,0,0,0,0,0,0.227,0.2273,0.2301,0.229,0.2293,0.2305,0.231,0.2312,0.2318,0.2319,0.2319,0.2322,0.232,0.232,0.2333,0.2355,0.232,0.232,0.2368,0.237,0.2372,0.2409,0,0,0,0,0,0,0.2268,0.2273,0.2273,0.229,0.2294,0.2318,0.2311,0.2312,0.2322,0.2322,0.2323,0.2323,0.232,0.2333,0.2333,0.2354,0.232,0.2366,0.2369,0.2371,0.2406,0.2412,0.2417,0,0,0,0,0,0.2267,0.2267,0.2273,0.2276,0.2296,0.2319,0.2322,0.2327,0.2322,0.233,0.2333,0.2323,0.2348,0.2334,0.2334,0.2356,0.2365,0.2368,0.2371,0.2404,0.2411,0.2417,0,0,0,0,0,0,0.2241,0.2268,0.2274,0.228,0.2303,0.232,0.2325,0.233,0.2339,0.2337,0.2334,0.2334,0.2357,0.2351,0.2336,0.2379,0.2357,0.236,0.2382,0.2389,0.2394,0.24,0.232,0,0,0,0,0,0.2239,0.225,0.2277,0.2282,0.2295,0.2311,0.2319,0.2328,0.234,0.2343,0.2345,0.2352,0.2369,0.2373,0.2383,0.2401,0.2422,0.2418,0.2423,0.2427,0.2434,0.2489,0.25,0.2381,0.2381,0.2381,0,0,0.2228,0.2246,0.225,0.2278,0.2294,0.2318,0.2315,0.2334,0.2354,0.2342,0.2361,0.2369,0.2378,0.2404,0.2413,0.2401,0.2475,0.2431,0.2434,0.2439,0.2493,0.2504,0.2515,0.2383,0.2383,0.2383,0,0,0.2221,0.2234,0.2245,0.2271,0.2303,0.2319,0.2327,0.2352,0.2363,0.2385,0.2389,0.2411,0.2422,0.2443,0.2452,0.2492,0.2502,0.2494,0.2524,0.2577,0.2587,0.2596,0.2648,0.2661,0.2496,0.2496,0.2496,0,0.2207,0.2227,0.2251,0.2278,0.2297,0.2322,0.2344,0.2365,0.2389,0.2408,0.2396,0.2444,0.2445,0.2494,0.2508,0.2505,0.2536,0.2497,0.2584,0.2594,0.2603,0.2653,0.2668,0.2498,0.2497,0.2497,0.2497,0,0.2216,0.2236,0.2248,0.2291,0.2316,0.2339,0.2379,0.2404,0.2417,0.2441,0.2487,0.2498,0.2529,0.2536,0.2531,0.2598,0.2601,0.2586,0.2567,0.2617,0.2667,0.2681,0.2501,0.25,0.2499,0.2499,0,0,0.2171,0.224,0.2243,0.227,0.2326,0.2347,0.2393,0.2442,0.2478,0.2505,0.2553,0.2582,0.2595,0.2607,0.2613,0.2653,0.2739,0.2646,0.2647,0.2696,0.2865,0.2871,0.2887,0.2742,0.2744,0.2746,0.2879,0,0.2169,0.2217,0.2251,0.2295,0.2325,0.2373,0.2416,0.2467,0.2506,0.2561,0.2597,0.264,0.2622,0.2642,0.2683,0.2728,0.2778,0.2705,0.2811,0.2814,0.2812,0.2904,0.2859,0.2974,0.2893,0.2895,0.2897,0,0.2163,0.22,0.2239,0.2313,0.233,0.2357,0.2434,0.2476,0.2565,0.2603,0.266,0.2691,0.2765,0.2734,0.2847,0.2804,0.2841,0.2869,0.2874,0.2876,0.2847,0.291,0.3002,0.2934,0.2919,0.2917,0.2915,0,0.212,0.2189,0.2217,0.2242,0.2327,0.2352,0.2395,0.2481,0.2534,0.2631,0.2688,0.2767,0.2823,0.288,0.2942,0.2905,0.3067,0.3021,0.3065,0.3065,0.3047,0.3041,0.3084,0.3109,0.3109,0.3108,0.3108,0,0.2104,0.2125,0.2197,0.2215,0.2256,0.2324,0.2376,0.2441,0.2547,0.2618,0.27,0.2778,0.2864,0.296,0.299,0.3091,0.3114,0.31,0.3112,0.3059,0.3053,0.3006,0.2965,0.3113,0.3112,0.3111,0.311,0,0.2046,0.2095,0.2129,0.221,0.2233,0.2257,0.2357,0.2406,0.2517,0.2617,0.2657,0.2819,0.2953,0.3041,0.3158,0.3167,0.3176,0.3268,0.3202,0.3204,0.3153,0.3116,0.3058,0.2954,0.334,0.3341,0.3342,0,0.2017,0.203,0.2101,0.2121,0.215,0.2201,0.2244,0.2366,0.2434,0.2634,0.2688,0.2867,0.299,0.3191,0.3261,0.3362,0.323,0.3346,0.326,0.3175,0.3143,0.2981,0.2884,0.3256,0.3256,0.3256,0.3256,0,0.1961,0.1982,0.2015,0.2055,0.209,0.2135,0.2213,0.227,0.2424,0.2534,0.2702,0.2825,0.307,0.3183,0.3334,0.3372,0.3204,0.3351,0.3286,0.3114,0.2919,0.2816,0.3138,0.3258,0.3257,0.3257,0.3257,0.3257,0.1906,0.1911,0.1954,0.1983,0.2024,0.2059,0.2072,0.2185,0.2287,0.2444,0.2626,0.2789,0.3055,0.3284,0.3296,0.3319,0.3231,0.3247,0.3224,0.3076,0.2928,0.3255,0.3365,0.3366,0.3366,0.3366,0.3367,0,0.1833,0.1854,0.1884,0.1913,0.1919,0.1969,0.2043,0.2056,0.2136,0.2338,0.2488,0.2779,0.2967,0.3139,0.3306,0.322,0.3032,0.3128,0.2893,0.281,0.3153,0.31,0.3129,0.3129,0.3129,0.313,0.313,0.313,0.1797,0.1794,0.1812,0.1797,0.1816,0.1793,0.181,0.1859,0.198,0.2152,0.2322,0.2519,0.2909,0.3214,0.3231,0.3144,0.2859,0.2773,0.2682,0.2953,0.2961,0.2968,0.2908,0.2896,0.2896,0.2232,0.2227,0.2224]},{"header":{"parameterUnit":"m.s-1","parameterCategory":2,"la1":30.2991,"la2":30.254,"lo1":-89.0895,"lo2":-89.0444,"dy":0.0017,"dx":0.0017,"nx":28,"ny":28,"refTime":"2025-12-20T09:00:00:Z","depth":"0","parameterNumber":3,"parameterNumberName":"V-component_of_CURRENTS"},"data":[0,0,0,0,0,0,0,0,0,0,0,0,0,0,0,0,0,0,0,0,0,0,0,0,0,0,0,0,0,0,0,0,0,0,0,0,0,0,0,0,0,0,0,0,0,0,0,0,0,0,0,0,0,0,0,0,0,0,-0.015,-0.0151,0,-0.0217,-0.0218,-0.0218,-0.0264,-0.0264,-0.0264,-0.0264,-0.0359,-0.0361,-0.0364,0,0,0,0,0,0,0,0,0,0,0,0,0,-0.0117,-0.0117,-0.015,-0.0151,-0.0151,-0.0217,-0.0218,-0.0219,-0.0264,-0.0264,-0.0264,-0.0265,-0.0358,-0.0361,-0.0364,0,0,0,0,0,0,0,0,0,0,0,0,0,-0.0153,-0.0117,-0.015,-0.0181,-0.0185,-0.0216,-0.0218,-0.0219,-0.0264,-0.0264,-0.0264,-0.0265,-0.0357,-0.0361,-0.0364,-0.0378,0,0,-0.0375,-0.0376,0,0,0,0,0,0,0,0,-0.0151,-0.0154,-0.0176,-0.0179,-0.0183,-0.0231,-0.0241,-0.0273,-0.0264,-0.0235,-0.0265,-0.0265,-0.0318,-0.0325,-0.0338,-0.0383,-0.0387,-0.0375,-0.0377,-0.0379,-0.038,0,0,0,0,0,0,0,-0.0148,-0.0152,-0.0177,-0.0177,-0.0181,-0.0211,-0.0216,-0.0247,-0.0275,-0.0237,-0.024,-0.0246,-0.032,-0.0334,-0.034,-0.0388,-0.0375,-0.0378,-0.038,-0.0381,-0.0453,-0.0453,0,0,0,0,0,0,-0.0135,-0.0149,-0.0175,-0.0179,-0.0166,-0.0211,-0.0217,-0.0216,-0.0274,-0.0283,-0.0246,-0.0248,-0.0328,-0.0336,-0.0344,-0.0356,-0.0379,-0.0382,-0.0384,-0.0453,-0.0453,-0.0453,0,0,0,0,0,0,-0.0134,-0.0136,-0.0173,-0.0166,-0.0172,-0.021,-0.021,-0.0217,-0.0231,-0.028,-0.0289,-0.0251,-0.0329,-0.0339,-0.0367,-0.0361,-0.0383,-0.0386,-0.0453,-0.0453,-0.0453,-0.0387,0,0,0,0,0,0,-0.0132,-0.0135,-0.013,-0.0164,-0.0172,-0.0184,-0.021,-0.0218,-0.0233,-0.0237,-0.0288,-0.0297,-0.033,-0.0361,-0.037,-0.0366,-0.0389,-0.0454,-0.0453,-0.0453,-0.0389,-0.0384,-0.038,0,0,0,0,0,-0.0131,-0.0118,-0.0129,-0.0133,-0.0163,-0.0183,-0.019,-0.022,-0.0233,-0.0234,-0.0268,-0.0295,-0.0366,-0.0364,-0.0374,-0.0371,-0.0454,-0.0453,-0.0453,-0.0391,-0.0385,-0.038,0,0,0,0,0,0,-0.0098,-0.0122,-0.0135,-0.013,-0.0152,-0.019,-0.0192,-0.0215,-0.0243,-0.0245,-0.0294,-0.0305,-0.0328,-0.0359,-0.0355,-0.0391,-0.0414,-0.0416,-0.0364,-0.0359,-0.0354,-0.0336,-0.0392,0,0,0,0,0,-0.0088,-0.0086,-0.0116,-0.0112,-0.0119,-0.0156,-0.0167,-0.0187,-0.0216,-0.0229,-0.0264,-0.0302,-0.0335,-0.0353,-0.0386,-0.0404,-0.0433,-0.041,-0.0405,-0.0401,-0.0394,-0.0444,-0.0444,-0.0452,-0.0452,-0.0452,0,0,-0.0074,-0.0087,-0.0086,-0.0105,-0.0125,-0.0127,-0.0163,-0.0173,-0.0177,-0.0235,-0.0247,-0.0288,-0.0337,-0.0358,-0.0371,-0.0382,-0.0409,-0.04,-0.0396,-0.0392,-0.0444,-0.0443,-0.0443,-0.0451,-0.0451,-0.0451,0,0,-0.0042,-0.0056,-0.0043,-0.0058,-0.008,-0.0102,-0.0101,-0.0135,-0.0151,-0.017,-0.0213,-0.0247,-0.0294,-0.0329,-0.0353,-0.0344,-0.0384,-0.0355,-0.0317,-0.0366,-0.0366,-0.0366,-0.0378,-0.038,-0.0352,-0.0352,-0.0352,0,-0.0023,-0.0012,-0.0043,-0.0036,-0.004,-0.0085,-0.0072,-0.0095,-0.0134,-0.0142,-0.0164,-0.0236,-0.0281,-0.031,-0.0309,-0.0334,-0.0356,-0.0332,-0.036,-0.0361,-0.0362,-0.0375,-0.0378,-0.0348,-0.0349,-0.0349,-0.0349,0,0.0015,0.0023,0.003,0.0025,0.0015,0.0019,-0.0014,-0.0024,-0.005,-0.0078,-0.0111,-0.0175,-0.0217,-0.024,-0.0274,-0.0301,-0.0311,-0.0348,-0.037,-0.0357,-0.0372,-0.0376,-0.0344,-0.0345,-0.0346,-0.0347,0,0,0.0063,0.0059,0.0062,0.0074,0.0049,0.005,0.0046,0.003,0.0036,-0.0018,-0.002,-0.0094,-0.0131,-0.0161,-0.0213,-0.0259,-0.0286,-0.03,-0.0305,-0.0305,-0.0367,-0.036,-0.0365,-0.0331,-0.0332,-0.0333,-0.0365,0,0.0104,0.0137,0.0119,0.0151,0.0167,0.013,0.0134,0.0111,0.0082,0.0068,-0.0007,-0.0033,-0.0101,-0.0117,-0.0175,-0.0256,-0.0298,-0.0272,-0.0387,-0.0389,-0.038,-0.037,-0.0353,-0.038,-0.0369,-0.037,-0.0371,0,0.015,0.0166,0.0205,0.0223,0.0228,0.0234,0.0237,0.0234,0.0194,0.017,0.0121,0.0067,0.0002,-0.0063,-0.0194,-0.0173,-0.0262,-0.0332,-0.0336,-0.0356,-0.0391,-0.0398,-0.0388,-0.0555,-0.0378,-0.0377,-0.0377,0,0.0204,0.023,0.0266,0.0269,0.0276,0.0287,0.0288,0.0264,0.0283,0.0234,0.0242,0.0145,0.0115,-0.002,-0.0154,-0.0178,-0.0292,-0.0347,-0.0422,-0.0421,-0.0443,-0.0442,-0.0604,-0.0448,-0.0448,-0.0447,-0.0447,0,0.0257,0.0289,0.0294,0.0314,0.0364,0.0344,0.0386,0.0371,0.037,0.0403,0.03,0.0314,0.0121,0.0039,-0.0114,-0.0259,-0.0263,-0.0406,-0.0434,-0.0416,-0.0413,-0.0589,-0.0694,-0.0449,-0.0448,-0.0448,-0.0448,0,0.0311,0.0313,0.036,0.0379,0.0391,0.0423,0.0464,0.0499,0.048,0.0522,0.0518,0.0449,0.0342,0.0162,-0.0036,-0.0182,-0.0436,-0.0396,-0.0338,-0.0359,-0.0595,-0.0697,-0.0889,-0.0963,-0.0487,-0.0487,-0.0488,0,0.0341,0.0369,0.0411,0.0448,0.0458,0.0503,0.0543,0.0548,0.0599,0.0616,0.0656,0.0579,0.0551,0.0284,0.0009,-0.0238,-0.0423,-0.0397,-0.0459,-0.0598,-0.0734,-0.0812,-0.0866,-0.0452,-0.0451,-0.0451,-0.0451,0,0.0401,0.041,0.0449,0.0522,0.0572,0.0635,0.0697,0.0763,0.0782,0.0831,0.0894,0.0879,0.0631,0.0411,0.0067,-0.0135,-0.0519,-0.0401,-0.0581,-0.0744,-0.0807,-0.0893,-0.0417,-0.0449,-0.045,-0.045,-0.045,-0.045,0.0446,0.0484,0.0534,0.0608,0.0671,0.0764,0.0839,0.0923,0.1029,0.1129,0.1097,0.1117,0.0767,0.031,0.0019,-0.0496,-0.0521,-0.0656,-0.077,-0.0836,-0.0913,-0.041,-0.0458,-0.0458,-0.0458,-0.0458,-0.0458,0,0.0506,0.0548,0.0619,0.0709,0.0794,0.0812,0.0944,0.1035,0.1181,0.1282,0.1347,0.1209,0.0768,0.0287,-0.0394,-0.0776,-0.0942,-0.1,-0.1129,-0.1169,-0.0748,-0.0752,-0.0824,-0.0823,-0.0823,-0.0823,-0.0823,-0.0823,0.0541,0.0618,0.0653,0.0797,0.0867,0.0994,0.1078,0.1218,0.1329,0.1476,0.152,0.1523,0.1169,-0.008,-0.093,-0.1151,-0.1443,-0.1507,-0.1646,-0.1383,-0.136,-0.1338,-0.1367,-0.1567,-0.1568,-0.2006,-0.2011,-0.2015]}],[{"header":{"parameterUnit":"m.s-1","parameterCategory":2,"la1":30.2991,"la2":30.254,"lo1":-89.0895,"lo2":-89.0444,"dy":0.0017,"dx":0.0017,"nx":28,"ny":28,"refTime":"2025-12-20T09:00:00:Z","depth":"2","parameterNumber":2,"parameterNumberName":"U-component_of_CURRENTS"},"data":[0,0,0,0,0,0,0,0,0,0,0,0,0,0,0,0,0,0,0,0,0,0,0,0,0,0,0,0,0,0,0,0,0,0,0,0,0,0,0,0,0,0,0,0,0,0,0,0,0,0,0,0,0,0,0,0,0,0,0.2197,0.2197,0,0.223,0.223,0.2231,0.2238,0.2238,0.2238,0.2238,0.225,0.2251,0.2251,0,0,0,0,0,0,0,0,0,0,0,0,0,0.2134,0.2135,0.2197,0.2197,0.2198,0.223,0.223,0.2231,0.2238,0.2238,0.2238,0.2238,0.225,0.2251,0.2251,0,0,0,0,0,0,0,0,0,0,0,0,0,0.2162,0.2135,0.2197,0.2207,0.2208,0.223,0.223,0.2231,0.2238,0.2238,0.2238,0.2238,0.225,0.2251,0.2251,0.2257,0,0,0.2253,0.2253,0,0,0,0,0,0,0,0,0.216,0.2164,0.2205,0.2206,0.2208,0.2231,0.2213,0.2239,0.2238,0.2225,0.2238,0.2238,0.2243,0.2245,0.2249,0.2257,0.2258,0.2253,0.2253,0.2254,0.2254,0,0,0,0,0,0,0,0.2158,0.2163,0.2208,0.2206,0.2207,0.2208,0.2212,0.2218,0.2232,0.2226,0.2227,0.2234,0.2244,0.2248,0.2249,0.2258,0.2253,0.2254,0.2254,0.2254,0.2313,0.2314,0,0,0,0,0,0,0.2159,0.2161,0.2207,0.2209,0.2186,0.2209,0.2214,0.2222,0.2233,0.2235,0.2234,0.2234,0.2247,0.2248,0.2249,0.2291,0.2254,0.2254,0.2255,0.2312,0.2313,0.2314,0,0,0,0,0,0,0.2157,0.2163,0.2206,0.2187,0.2193,0.2211,0.2221,0.2223,0.2234,0.2239,0.2241,0.2243,0.2247,0.2249,0.2267,0.2291,0.2254,0.2255,0.231,0.2312,0.2314,0.2353,0,0,0,0,0,0,0.2155,0.2162,0.2169,0.2187,0.2194,0.2227,0.2221,0.2224,0.2239,0.224,0.2248,0.2249,0.2247,0.2267,0.2268,0.2291,0.2256,0.2309,0.2311,0.2313,0.235,0.2356,0.2361,0,0,0,0,0,0.2153,0.2162,0.2169,0.2175,0.2203,0.2228,0.2232,0.2242,0.224,0.225,0.2257,0.2249,0.2282,0.2268,0.2269,0.2293,0.2308,0.231,0.2313,0.2348,0.2355,0.2361,0,0,0,0,0,0,0.2134,0.2165,0.2173,0.219,0.2212,0.223,0.2241,0.2247,0.2261,0.2262,0.2261,0.2263,0.229,0.2286,0.227,0.2318,0.2295,0.2298,0.2321,0.2328,0.2333,0.2336,0.2256,0,0,0,0,0,0.2136,0.2153,0.218,0.2195,0.2208,0.2225,0.2236,0.2247,0.2261,0.2267,0.2273,0.2284,0.2302,0.2309,0.2321,0.2342,0.2355,0.236,0.2366,0.237,0.2375,0.2418,0.2428,0.2323,0.2323,0.2323,0,0,0.213,0.2151,0.2159,0.2192,0.2209,0.2233,0.2232,0.2255,0.2275,0.2266,0.2292,0.2302,0.2312,0.2341,0.2353,0.234,0.2409,0.2374,0.2377,0.2379,0.2422,0.2432,0.2441,0.2325,0.2325,0.2324,0,0,0.213,0.2151,0.2166,0.2191,0.2225,0.224,0.2249,0.2275,0.2289,0.2316,0.232,0.2345,0.2362,0.2381,0.2391,0.2433,0.2437,0.2437,0.2465,0.2508,0.2517,0.2525,0.2562,0.2573,0.2439,0.2439,0.2439,0,0.2122,0.2149,0.2174,0.22,0.2221,0.2245,0.2267,0.229,0.2318,0.2337,0.2329,0.2379,0.2384,0.2431,0.2446,0.2445,0.2468,0.2439,0.2515,0.2523,0.253,0.2567,0.2579,0.2441,0.2441,0.244,0.244,0,0.2137,0.2163,0.2176,0.2218,0.2243,0.2268,0.2305,0.2332,0.2349,0.2372,0.242,0.2433,0.2465,0.2473,0.247,0.2531,0.253,0.2517,0.2497,0.2543,0.2579,0.2591,0.2444,0.2443,0.2443,0.2442,0,0,0.2104,0.2172,0.2176,0.2202,0.2256,0.2277,0.2322,0.237,0.2405,0.2435,0.2482,0.2514,0.2527,0.254,0.2547,0.258,0.2652,0.2572,0.2574,0.2608,0.2751,0.2742,0.2753,0.2655,0.2657,0.2658,0.2757,0,0.2107,0.2154,0.2189,0.2232,0.226,0.2306,0.2347,0.2397,0.2435,0.2488,0.2523,0.2568,0.2552,0.2575,0.2608,0.2645,0.2683,0.2626,0.2702,0.2704,0.269,0.2766,0.2563,0.2633,0.2768,0.277,0.2771,0,0.2105,0.2141,0.2181,0.2251,0.2267,0.2295,0.2369,0.2411,0.2495,0.2531,0.2585,0.2616,0.2682,0.2655,0.2745,0.2712,0.2736,0.2756,0.276,0.2745,0.2717,0.2608,0.2648,0.279,0.2789,0.2787,0.2786,0,0.2066,0.2134,0.2163,0.2187,0.2267,0.2294,0.2338,0.2418,0.2469,0.2562,0.2613,0.2684,0.2736,0.2778,0.2825,0.2794,0.2921,0.2882,0.2897,0.2896,0.2734,0.2716,0.2946,0.2945,0.2945,0.2945,0.2945,0,0.2053,0.2076,0.2147,0.2164,0.2207,0.2272,0.2325,0.2387,0.2486,0.2551,0.2629,0.2699,0.2771,0.2848,0.2866,0.2933,0.296,0.2924,0.2931,0.2743,0.2726,0.2861,0.285,0.2949,0.2948,0.2947,0.2947,0,0.2,0.2048,0.2083,0.2162,0.2186,0.2214,0.2312,0.2358,0.2463,0.2554,0.2592,0.2737,0.2845,0.2914,0.3003,0.2996,0.3048,0.3058,0.2838,0.2817,0.298,0.297,0.3087,0.3088,0.3088,0.3089,0.3089,0,0.1975,0.1989,0.206,0.2081,0.2112,0.2167,0.2209,0.2325,0.2387,0.2568,0.2615,0.2768,0.286,0.3012,0.3041,0.3099,0.3101,0.2922,0.2824,0.3005,0.3,0.2988,0.2978,0.2623,0.2619,0.2617,0.2614,0,0.1926,0.1948,0.198,0.2022,0.2059,0.2103,0.218,0.2228,0.237,0.2465,0.2605,0.27,0.2878,0.2871,0.2969,0.2959,0.2897,0.287,0.3127,0.2626,0.2578,0.2569,0.2571,0.2589,0.2592,0.2594,0.2595,0.2596,0.1878,0.1884,0.1926,0.1956,0.1998,0.2029,0.204,0.2139,0.2226,0.2345,0.2499,0.2577,0.2676,0.2738,0.2697,0.2669,0.2852,0.271,0.2714,0.2722,0.2659,0.2615,0.2621,0.2624,0.2626,0.2628,0.263,0,0.1812,0.1833,0.1862,0.1892,0.1897,0.1948,0.2011,0.2012,0.2071,0.2209,0.2312,0.223,0.2284,0.2361,0.231,0.2354,0.2276,0.2239,0.2105,0.2136,0.2162,0.2063,0.1871,0.1868,0.1865,0.1862,0,0,0.178,0.1777,0.1792,0.1778,0.1799,0.1778,0.1788,0.1813,0.1888,0.1919,0.1957,0.2167,0.231,0.2043,0.2051,0.1942,0.2,0.1871,0.2495,0.2368,0.2389,0.2472,0.2362,0,0,0,0,0]},{"header":{"parameterUnit":"m.s-1","parameterCategory":2,"la1":30.2991,"la2":30.254,"lo1":-89.0895,"lo2":-89.0444,"dy":0.0017,"dx":0.0017,"nx":28,"ny":28,"refTime":"2025-12-20T09:00:00:Z","depth":"2","parameterNumber":3,"parameterNumberName":"V-component_of_CURRENTS"},"data":[0,0,0,0,0,0,0,0,0,0,0,0,0,0,0,0,0,0,0,0,0,0,0,0,0,0,0,0,0,0,0,0,0,0,0,0,0,0,0,0,0,0,0,0,0,0,0,0,0,0,0,0,0,0,0,0,0,0,-0.0083,-0.0084,0,-0.0149,-0.0149,-0.015,-0.0193,-0.0193,-0.0193,-0.0193,-0.0279,-0.0281,-0.0283,0,0,0,0,0,0,0,0,0,0,0,0,0,-0.0032,-0.0032,-0.0083,-0.0084,-0.0085,-0.0148,-0.0149,-0.015,-0.0193,-0.0193,-0.0193,-0.0194,-0.0278,-0.0281,-0.0283,0,0,0,0,0,0,0,0,0,0,0,0,0,-0.0072,-0.0032,-0.0083,-0.0113,-0.0116,-0.0148,-0.0149,-0.0151,-0.0193,-0.0193,-0.0193,-0.0194,-0.0277,-0.028,-0.0283,-0.0296,0,0,-0.0293,-0.0294,0,0,0,0,0,0,0,0,-0.0069,-0.0074,-0.0108,-0.0111,-0.0115,-0.0162,-0.0163,-0.02,-0.0193,-0.0164,-0.0193,-0.0194,-0.0241,-0.0247,-0.0259,-0.03,-0.0304,-0.0293,-0.0295,-0.0296,-0.0297,0,0,0,0,0,0,0,-0.0066,-0.0071,-0.011,-0.0109,-0.0113,-0.0136,-0.0142,-0.017,-0.0201,-0.0167,-0.017,-0.0176,-0.0243,-0.0256,-0.0262,-0.0305,-0.0293,-0.0296,-0.0298,-0.0299,-0.0361,-0.0361,0,0,0,0,0,0,-0.0055,-0.0068,-0.0107,-0.0111,-0.0092,-0.0136,-0.0143,-0.0147,-0.02,-0.0208,-0.0176,-0.0178,-0.0251,-0.0258,-0.0265,-0.0275,-0.0296,-0.0299,-0.0301,-0.0361,-0.0361,-0.0361,0,0,0,0,0,0,-0.0053,-0.0058,-0.0105,-0.0091,-0.0099,-0.0136,-0.0141,-0.0148,-0.0162,-0.0207,-0.0215,-0.0182,-0.0251,-0.0261,-0.0286,-0.0279,-0.0301,-0.0303,-0.0362,-0.0361,-0.0361,-0.0301,0,0,0,0,0,0,-0.0052,-0.0057,-0.0055,-0.009,-0.0099,-0.0117,-0.0141,-0.0149,-0.0165,-0.0169,-0.0215,-0.0224,-0.0252,-0.0281,-0.0289,-0.0284,-0.0306,-0.0362,-0.0362,-0.0361,-0.0303,-0.0298,-0.0294,0,0,0,0,0,-0.005,-0.0043,-0.0055,-0.006,-0.0096,-0.0117,-0.0124,-0.0152,-0.0165,-0.0167,-0.0198,-0.0222,-0.0285,-0.0284,-0.0293,-0.0288,-0.0362,-0.0362,-0.0361,-0.0305,-0.0299,-0.0294,0,0,0,0,0,0,-0.0019,-0.0048,-0.0061,-0.0064,-0.0086,-0.0124,-0.0128,-0.0149,-0.0175,-0.0177,-0.0221,-0.0231,-0.0252,-0.0278,-0.0276,-0.0305,-0.0327,-0.0328,-0.0281,-0.0276,-0.0272,-0.0255,-0.0308,0,0,0,0,0,-0.0012,-0.0015,-0.0047,-0.0048,-0.0057,-0.0092,-0.0104,-0.0122,-0.0151,-0.0163,-0.0195,-0.0229,-0.0257,-0.0272,-0.0302,-0.0317,-0.0343,-0.032,-0.0316,-0.0312,-0.0305,-0.034,-0.0338,-0.0359,-0.0359,-0.036,0,0,-0.0,-0.0016,-0.0019,-0.0042,-0.0062,-0.0065,-0.01,-0.0112,-0.0115,-0.0168,-0.018,-0.0216,-0.0258,-0.0276,-0.0287,-0.0297,-0.0319,-0.0312,-0.0308,-0.0303,-0.0339,-0.0337,-0.0335,-0.0359,-0.0359,-0.0359,0,0,0.0025,0.0007,0.0015,0.0,-0.0023,-0.0043,-0.0044,-0.0078,-0.0092,-0.0111,-0.0148,-0.0177,-0.0221,-0.0247,-0.0268,-0.0258,-0.0296,-0.0269,-0.0233,-0.0266,-0.0264,-0.0263,-0.0289,-0.029,-0.0265,-0.0265,-0.0265,0,0.0041,0.0045,0.0014,0.0018,0.0014,-0.0029,-0.0018,-0.004,-0.0077,-0.0084,-0.0105,-0.0168,-0.0206,-0.0227,-0.0225,-0.0247,-0.0271,-0.0247,-0.026,-0.0259,-0.0259,-0.0286,-0.0288,-0.0262,-0.0262,-0.0263,-0.0263,0,0.0071,0.0075,0.0079,0.0072,0.0062,0.0064,0.0034,0.0025,-0.0,-0.0025,-0.0053,-0.0108,-0.0144,-0.0163,-0.0193,-0.0208,-0.0227,-0.025,-0.0269,-0.0253,-0.0282,-0.0286,-0.0258,-0.0259,-0.026,-0.0261,0,0,0.0107,0.0103,0.0104,0.0116,0.0093,0.0092,0.009,0.0077,0.0082,0.0034,0.0032,-0.0029,-0.0063,-0.0088,-0.0133,-0.0165,-0.0188,-0.0202,-0.0205,-0.022,-0.0256,-0.0268,-0.0273,-0.0214,-0.0215,-0.0215,-0.0275,0,0.0142,0.0169,0.0153,0.0182,0.0196,0.0164,0.0169,0.015,0.0124,0.0111,0.0048,0.0026,-0.0034,-0.0048,-0.0091,-0.0161,-0.0196,-0.0169,-0.0276,-0.0278,-0.0285,-0.0277,-0.0255,-0.0306,-0.0279,-0.0279,-0.028,0,0.0178,0.0193,0.0227,0.0247,0.0251,0.0257,0.0262,0.0261,0.0227,0.0204,0.0162,0.0114,0.006,0.0008,-0.0105,-0.0085,-0.0163,-0.0223,-0.0227,-0.0261,-0.0297,-0.032,-0.0314,-0.0287,-0.0286,-0.0286,-0.0285,0,0.0224,0.0248,0.0281,0.0284,0.0294,0.0305,0.0308,0.0288,0.0305,0.0263,0.0268,0.0184,0.0155,0.0045,-0.008,-0.0093,-0.0203,-0.0238,-0.0323,-0.0325,-0.0337,-0.0339,-0.0318,-0.0318,-0.0318,-0.0318,-0.0318,0,0.027,0.0298,0.0305,0.0323,0.037,0.0354,0.0394,0.0382,0.0381,0.0411,0.0321,0.0327,0.0164,0.0083,-0.0049,-0.019,-0.0183,-0.0312,-0.034,-0.0316,-0.0315,-0.0326,-0.0326,-0.032,-0.0319,-0.0319,-0.0319,0,0.0314,0.0318,0.036,0.038,0.0392,0.0423,0.0462,0.0493,0.0477,0.0514,0.051,0.0439,0.0331,0.0167,-0.0007,-0.0135,-0.0278,-0.0332,-0.0287,-0.0309,-0.0386,-0.0382,-0.0433,-0.0434,-0.0435,-0.0435,-0.0436,0,0.0339,0.0363,0.0404,0.0438,0.0449,0.0492,0.0528,0.0536,0.058,0.059,0.0623,0.0538,0.0495,0.0235,-0.0007,-0.0236,-0.027,-0.037,-0.0397,-0.0375,-0.0398,-0.0393,-0.0388,-0.0391,-0.0391,-0.0391,-0.0391,0,0.0388,0.0397,0.0433,0.0501,0.0547,0.0606,0.0662,0.0718,0.0737,0.0772,0.0809,0.0779,0.0535,0.0315,-0.0005,-0.0168,-0.0334,-0.038,-0.037,-0.0362,-0.034,-0.0361,-0.0357,-0.0392,-0.0392,-0.0392,-0.0392,-0.0392,0.0424,0.0458,0.0504,0.0572,0.0631,0.0713,0.0776,0.0846,0.093,0.0997,0.0959,0.0921,0.0656,0.0262,-0.0026,-0.0337,-0.0329,-0.0437,-0.0435,-0.0434,-0.0414,-0.0395,-0.0454,-0.0454,-0.0454,-0.0454,-0.0454,0,0.047,0.0509,0.0574,0.0655,0.0729,0.0751,0.0864,0.0931,0.104,0.1099,0.1126,0.0894,0.0636,0.0327,-0.0125,-0.0396,-0.0426,-0.0486,-0.0456,-0.0453,-0.045,-0.0431,-0.0476,-0.0477,-0.0477,-0.0478,0,0,0.0497,0.0564,0.0596,0.072,0.0784,0.0891,0.0961,0.106,0.113,0.1195,0.1185,0.113,0.0751,0.043,0.0053,-0.0207,-0.0271,-0.0268,-0.0222,-0.014,-0.0134,-0.0396,-0.036,0,0,0,0,0]}],[{"header":{"parameterUnit":"m.s-1","parameterCategory":2,"la1":30.2991,"la2":30.254,"lo1":-89.0895,"lo2":-89.0444,"dy":0.0017,"dx":0.0017,"nx":28,"ny":28,"refTime":"2025-12-20T09:00:00:Z","depth":"4","parameterNumber":2,"parameterNumberName":"U-component_of_CURRENTS"},"data":[0,0,0,0,0,0,0,0,0,0,0,0,0,0,0,0,0,0,0,0,0,0,0,0,0,0,0,0,0,0,0,0,0,0,0,0,0,0,0,0,0,0,0,0,0,0,0,0,0,0,0,0,0,0,0,0,0,0,0.1501,0.1502,0,0.1571,0.1572,0.1572,0.1627,0.1628,0.1628,0.1629,0.1701,0.1702,0.1704,0,0,0,0,0,0,0,0,0,0,0,0,0,0.1398,0.1399,0.1501,0.1502,0.1503,0.1571,0.1572,0.1572,0.1627,0.1628,0.1629,0.1629,0.1701,0.1702,0.1704,0,0,0,0,0,0,0,0,0,0,0,0,0,0.1451,0.14,0.1501,0.154,0.1544,0.1571,0.1572,0.1573,0.1627,0.1628,0.1629,0.163,0.17,0.1702,0.1704,0.1694,0,0,0.171,0.171,0,0,0,0,0,0,0,0,0.1448,0.1454,0.1533,0.1538,0.1542,0.1593,0.1562,0.1614,0.1626,0.1594,0.1629,0.163,0.1666,0.167,0.1678,0.1698,0.1701,0.171,0.1711,0.1712,0.1712,0,0,0,0,0,0,0,0.1444,0.1452,0.1527,0.1534,0.154,0.1548,0.1557,0.1572,0.1621,0.1596,0.1601,0.1611,0.1668,0.1676,0.1681,0.1702,0.171,0.1711,0.1713,0.1713,0.1811,0.1812,0,0,0,0,0,0,0.1439,0.1448,0.1525,0.1529,0.1499,0.1549,0.1559,0.1574,0.1621,0.163,0.161,0.1614,0.1673,0.1678,0.1683,0.1762,0.1712,0.1713,0.1715,0.1809,0.1811,0.1813,0,0,0,0,0,0,0.1437,0.1445,0.1522,0.1491,0.1502,0.155,0.1567,0.1575,0.1616,0.1632,0.1641,0.1647,0.1674,0.1681,0.1728,0.1762,0.1714,0.1716,0.1808,0.181,0.1812,0.1864,0,0,0,0,0,0,0.1434,0.1444,0.1468,0.1491,0.1504,0.1559,0.1566,0.1576,0.162,0.1625,0.1666,0.1672,0.1675,0.1726,0.173,0.1764,0.1718,0.1806,0.1809,0.1811,0.186,0.1868,0.1874,0,0,0,0,0,0.143,0.1452,0.1468,0.1479,0.153,0.1561,0.1568,0.1604,0.1621,0.1644,0.1674,0.1672,0.1746,0.1728,0.1733,0.1768,0.1804,0.1808,0.1811,0.1857,0.1866,0.1874,0,0,0,0,0,0,0.142,0.1461,0.1479,0.1514,0.1546,0.1571,0.1601,0.162,0.1661,0.1678,0.1689,0.1698,0.1752,0.1752,0.1732,0.1805,0.1775,0.178,0.1809,0.1817,0.1824,0.1821,0.1719,0,0,0,0,0,0.1428,0.146,0.1492,0.1525,0.1544,0.1577,0.16,0.1625,0.1657,0.1678,0.1705,0.1735,0.1763,0.1785,0.1806,0.1845,0.1847,0.1871,0.1878,0.1883,0.1885,0.1915,0.1924,0.1823,0.1823,0.1823,0,0,0.1433,0.1461,0.148,0.1527,0.1556,0.1586,0.1595,0.164,0.1672,0.1677,0.174,0.1762,0.1779,0.1825,0.1849,0.1835,0.1917,0.1888,0.1892,0.1891,0.1919,0.1929,0.1937,0.1826,0.1825,0.1825,0,0,0.1447,0.1487,0.1514,0.1545,0.1596,0.1615,0.1634,0.1678,0.1711,0.1762,0.1778,0.1821,0.1864,0.1884,0.1896,0.1952,0.1951,0.1965,0.2,0.2029,0.2037,0.2044,0.2073,0.2082,0.1969,0.197,0.197,0,0.1454,0.1493,0.1527,0.156,0.159,0.163,0.1662,0.1697,0.1753,0.1783,0.1793,0.1871,0.1888,0.1939,0.1963,0.1967,0.1984,0.1967,0.2037,0.2044,0.2051,0.2078,0.2088,0.1973,0.1972,0.1972,0.1972,0,0.1478,0.1522,0.1543,0.1598,0.1633,0.1671,0.1716,0.1763,0.1806,0.1837,0.191,0.1937,0.1982,0.1998,0.2,0.206,0.2058,0.2041,0.2014,0.2064,0.209,0.2099,0.1977,0.1976,0.1975,0.1974,0,0,0.1458,0.1543,0.1554,0.1588,0.1659,0.1686,0.1749,0.1808,0.1855,0.1914,0.1973,0.2026,0.205,0.2065,0.208,0.2107,0.2173,0.2102,0.2102,0.2126,0.2248,0.2131,0.213,0.2173,0.2175,0.2176,0.2251,0,0.1469,0.1532,0.1574,0.1638,0.1672,0.1731,0.1784,0.1847,0.1902,0.197,0.2015,0.2077,0.2073,0.2109,0.2137,0.2168,0.2198,0.2155,0.2199,0.22,0.2087,0.2136,0.2181,0.2258,0.226,0.2261,0.2262,0,0.1472,0.1518,0.1579,0.1664,0.1686,0.1731,0.1823,0.1877,0.1971,0.2019,0.2086,0.2126,0.2196,0.2176,0.2253,0.223,0.2246,0.2258,0.2261,0.2137,0.2099,0.2195,0.2278,0.2277,0.2276,0.2275,0.2274,0,0.1428,0.1518,0.1569,0.1599,0.1697,0.1744,0.1803,0.1897,0.1952,0.206,0.2113,0.219,0.2248,0.2279,0.232,0.2297,0.2391,0.2357,0.2266,0.2259,0.2317,0.2309,0.2401,0.2401,0.2401,0.2401,0.2401,0,0.1408,0.1452,0.156,0.1587,0.1654,0.1733,0.1811,0.1882,0.1987,0.205,0.2141,0.2197,0.2279,0.2341,0.2352,0.2343,0.2421,0.2279,0.2269,0.234,0.2333,0.2325,0.2315,0.2404,0.2403,0.2402,0.2402,0,0.1347,0.1419,0.1481,0.1595,0.1635,0.1685,0.1811,0.1862,0.1977,0.2063,0.2106,0.2232,0.2308,0.2373,0.2438,0.2377,0.2383,0.2359,0.2453,0.2447,0.2222,0.2215,0.2251,0.2248,0.2245,0.2242,0.224,0,0.1318,0.1347,0.1471,0.1511,0.1567,0.1656,0.1712,0.1841,0.1895,0.2062,0.2093,0.2222,0.2287,0.2287,0.2364,0.2384,0.2354,0.2342,0.2251,0.222,0.2207,0.2204,0.2201,0.2235,0.2235,0.2234,0.2233,0,0.1258,0.1315,0.1369,0.145,0.1518,0.1582,0.1678,0.1705,0.1848,0.197,0.2027,0.2073,0.2159,0.2206,0.2249,0.2254,0.2336,0.2309,0.2314,0.2229,0.2201,0.2191,0.2191,0.2223,0.2224,0.2225,0.2226,0,0.1214,0.1235,0.1314,0.1373,0.1454,0.1487,0.1547,0.1613,0.1682,0.186,0.1877,0.2012,0.2133,0.2142,0.2181,0.2182,0.2138,0.2053,0.207,0.2082,0.1992,0.1929,0.1865,0,0,0,0,0,0.1161,0.1178,0.123,0.1288,0.1362,0.1408,0.1515,0.1577,0.1712,0.1705,0.1784,0.1852,0.191,0.1989,0.1956,0.2116,0.2152,0.2069,0.2064,0.2166,0.2178,0.2088,0,0,0,0,0,0,0.1126,0.1174,0.1196,0.1204,0.1226,0.1293,0.1353,0.1444,0.145,0.1592,0.1636,0.1744,0.1833,0.1907,0.192,0.1944,0.1904,0.2158,0.2154,0.2159,0.217,0.2179,0.2091,0,0,0,0,0]},{"header":{"parameterUnit":"m.s-1","parameterCategory":2,"la1":30.2991,"la2":30.254,"lo1":-89.0895,"lo2":-89.0444,"dy":0.0017,"dx":0.0017,"nx":28,"ny":28,"refTime":"2025-12-20T09:00:00:Z","depth":"4","parameterNumber":3,"parameterNumberName":"V-component_of_CURRENTS"},"data":[0,0,0,0,0,0,0,0,0,0,0,0,0,0,0,0,0,0,0,0,0,0,0,0,0,0,0,0,0,0,0,0,0,0,0,0,0,0,0,0,0,0,0,0,0,0,0,0,0,0,0,0,0,0,0,0,0,0,-0.0011,-0.0011,0,-0.006,-0.0061,-0.0062,-0.0095,-0.0095,-0.0095,-0.0095,-0.0163,-0.0165,-0.0166,0,0,0,0,0,0,0,0,0,0,0,0,0,0.0031,0.0031,-0.001,-0.0011,-0.0012,-0.006,-0.0061,-0.0062,-0.0095,-0.0095,-0.0095,-0.0096,-0.0163,-0.0164,-0.0166,0,0,0,0,0,0,0,0,0,0,0,0,0,0.0,0.0031,-0.001,-0.0034,-0.0036,-0.006,-0.0061,-0.0062,-0.0095,-0.0095,-0.0095,-0.0096,-0.0162,-0.0164,-0.0167,-0.0176,0,0,-0.0174,-0.0175,0,0,0,0,0,0,0,0,0.0002,-0.0001,-0.003,-0.0032,-0.0035,-0.0071,-0.0071,-0.0101,-0.0095,-0.0073,-0.0095,-0.0096,-0.0134,-0.0138,-0.0147,-0.0179,-0.0182,-0.0174,-0.0176,-0.0177,-0.0178,0,0,0,0,0,0,0,0.0004,0.0,-0.0031,-0.003,-0.0034,-0.005,-0.0055,-0.0077,-0.0102,-0.0075,-0.0077,-0.0082,-0.0135,-0.0145,-0.0149,-0.0183,-0.0174,-0.0176,-0.0178,-0.0179,-0.0229,-0.0229,0,0,0,0,0,0,0.0013,0.0003,-0.0029,-0.0032,-0.0016,-0.0051,-0.0056,-0.006,-0.0101,-0.0107,-0.0082,-0.0084,-0.0141,-0.0146,-0.0152,-0.016,-0.0177,-0.0179,-0.0181,-0.0229,-0.0229,-0.0229,0,0,0,0,0,0,0.0014,0.001,-0.0027,-0.0016,-0.0022,-0.0051,-0.0055,-0.0061,-0.0073,-0.0106,-0.0113,-0.0088,-0.0141,-0.0148,-0.017,-0.0164,-0.018,-0.0182,-0.0229,-0.0229,-0.0229,-0.0181,0,0,0,0,0,0,0.0015,0.0011,0.0012,-0.0015,-0.0022,-0.0037,-0.0055,-0.0061,-0.0075,-0.0078,-0.0114,-0.0121,-0.0142,-0.0166,-0.0172,-0.0167,-0.0184,-0.0229,-0.0229,-0.0229,-0.0183,-0.0179,-0.0176,0,0,0,0,0,0.0017,0.002,0.0012,0.0008,-0.002,-0.0037,-0.0042,-0.0064,-0.0075,-0.0077,-0.0101,-0.012,-0.0169,-0.0168,-0.0175,-0.0171,-0.0229,-0.0229,-0.0229,-0.0184,-0.018,-0.0176,0,0,0,0,0,0,0.0038,0.0016,0.0007,0.0003,-0.0014,-0.0042,-0.0046,-0.0062,-0.0084,-0.0086,-0.0119,-0.0127,-0.0144,-0.0165,-0.0163,-0.0185,-0.0202,-0.0203,-0.0165,-0.0161,-0.0158,-0.0144,-0.0186,0,0,0,0,0,0.0044,0.0041,0.0017,0.0014,0.0007,-0.0019,-0.0029,-0.0043,-0.0066,-0.0075,-0.0101,-0.0127,-0.0148,-0.016,-0.0183,-0.0195,-0.0217,-0.0197,-0.0194,-0.0191,-0.0184,-0.021,-0.0208,-0.0228,-0.0228,-0.0228,0,0,0.0052,0.0039,0.0037,0.0019,0.0004,0.0001,-0.0026,-0.0036,-0.0038,-0.0079,-0.0089,-0.0117,-0.015,-0.0163,-0.0172,-0.0179,-0.0198,-0.019,-0.0187,-0.0182,-0.021,-0.0208,-0.0206,-0.0227,-0.0227,-0.0227,0,0,0.007,0.0056,0.006,0.0049,0.0031,0.0016,0.0015,-0.0011,-0.0022,-0.0037,-0.0066,-0.0088,-0.0122,-0.0141,-0.0156,-0.0149,-0.0181,-0.0158,-0.0128,-0.0153,-0.0152,-0.0151,-0.018,-0.0182,-0.0155,-0.0154,-0.0154,0,0.0081,0.0083,0.0059,0.0062,0.0059,0.0027,0.0035,0.0019,-0.001,-0.0015,-0.0033,-0.0081,-0.0111,-0.0124,-0.0123,-0.0141,-0.0162,-0.0139,-0.0148,-0.0148,-0.0147,-0.0178,-0.018,-0.0152,-0.0152,-0.0153,-0.0153,0,0.0101,0.0104,0.0107,0.0101,0.0095,0.0096,0.0074,0.0067,0.0048,0.003,0.0008,-0.0034,-0.0061,-0.0075,-0.0098,-0.0108,-0.0127,-0.0142,-0.0155,-0.0142,-0.0175,-0.0179,-0.0149,-0.015,-0.015,-0.0151,0,0,0.0122,0.0122,0.0123,0.0134,0.0118,0.0118,0.0118,0.011,0.0115,0.0077,0.0077,0.0031,0.0004,-0.0014,-0.0048,-0.0072,-0.0094,-0.0101,-0.0104,-0.0125,-0.0153,-0.0159,-0.0164,-0.011,-0.011,-0.011,-0.0178,0,0.0147,0.0168,0.0158,0.0183,0.0193,0.0173,0.0179,0.0167,0.0147,0.0138,0.009,0.0073,0.0029,0.0017,-0.0014,-0.0073,-0.01,-0.0074,-0.0167,-0.017,-0.0172,-0.0167,-0.0111,-0.0181,-0.0182,-0.0183,-0.0183,0,0.0169,0.0183,0.0211,0.0232,0.0235,0.0243,0.0252,0.0253,0.023,0.0212,0.0181,0.0143,0.0101,0.0062,-0.0031,-0.0012,-0.0076,-0.0125,-0.013,-0.0152,-0.0182,-0.0198,-0.019,-0.019,-0.0189,-0.0189,-0.0188,0,0.0198,0.0222,0.0249,0.0253,0.0267,0.028,0.0287,0.0276,0.029,0.026,0.0262,0.0197,0.0171,0.0085,-0.0021,-0.0025,-0.0126,-0.0146,-0.0214,-0.0215,-0.0211,-0.0211,-0.0209,-0.0209,-0.0209,-0.0209,-0.0209,0,0.0226,0.0251,0.0267,0.0281,0.0323,0.0317,0.0352,0.0347,0.0349,0.0371,0.0304,0.0301,0.0177,0.0104,-0.0001,-0.0117,-0.0114,-0.0206,-0.023,-0.0191,-0.0188,-0.0214,-0.0214,-0.0211,-0.0211,-0.021,-0.021,0,0.025,0.026,0.0297,0.0323,0.0337,0.0365,0.0405,0.043,0.0422,0.0448,0.0446,0.038,0.028,0.015,0.0006,-0.0082,-0.0198,-0.0241,-0.0188,-0.0209,-0.0278,-0.0274,-0.0321,-0.0321,-0.0322,-0.0323,-0.0323,0,0.0263,0.0283,0.0328,0.0359,0.0373,0.0414,0.0447,0.0462,0.0492,0.0498,0.0516,0.0436,0.0372,0.0171,0.0019,-0.0182,-0.0214,-0.0276,-0.0279,-0.0269,-0.0288,-0.0283,-0.0279,-0.0324,-0.0324,-0.0324,-0.0324,0,0.0286,0.0302,0.0334,0.0395,0.0437,0.049,0.0539,0.0571,0.0591,0.059,0.058,0.0475,0.0358,0.0185,0.0026,-0.012,-0.0236,-0.0283,-0.0283,-0.0286,-0.0273,-0.0291,-0.0286,-0.0326,-0.0326,-0.0326,-0.0326,0,0.0305,0.033,0.0373,0.0429,0.0488,0.0548,0.0572,0.061,0.064,0.0648,0.0641,0.0511,0.0436,0.0217,0.0072,-0.0075,-0.0117,-0.0165,-0.0172,-0.0172,-0.0114,-0.0074,-0.0083,0,0,0,0,0,0.0319,0.035,0.0404,0.0466,0.0527,0.0563,0.0628,0.0647,0.0671,0.0676,0.0664,0.0556,0.0345,0.0251,0.0104,0.004,-0.0157,-0.0139,-0.0219,-0.0338,-0.0336,-0.0294,0,0,0,0,0,0,0.0328,0.0378,0.0404,0.0486,0.0534,0.0604,0.0647,0.0667,0.0671,0.0674,0.0566,0.0516,0.0308,0.043,0.0101,0.0055,-0.0017,-0.0238,-0.0241,-0.0339,-0.0337,-0.0335,-0.0292,0,0,0,0,0]}]]